Regional Weather Roundup
Issued by NWS

Home | Current Version | Previous Version | Graphics & Text | Print | Product List | Glossary On
Versions: 1 2 3 4 5 6 7 8 9 10 11 12 13 14 15 16 17 18 19 20 21 22 23 24 25 26 27 28 29 30 31 32 33 34 35 36 37 38 39 40 41 42 43 44 45 46 47 48 49 50
327
ASUS43 KBIS 180810
RWRND

NORTH DAKOTA REGIONAL WEATHER ROUNDUP
NATIONAL WEATHER SERVICE BISMARCK ND
200 AM CST WED JAN 18 2017

NOTE: "FAIR" INDICATES FEW OR NO CLOUDS BELOW 12,000 FEET WITH NO
SIGNIFICANT WEATHER AND/OR OBSTRUCTIONS TO VISIBILITY.


NDZ001>003-009>011-017-180900-
NORTHWEST NORTH DAKOTA

CITY           SKY/WX    TMP DP  RH WIND       PRES   REMARKS
WILLISTON      FAIR      32  23  69 SW17      29.70R
MINOT          FAIR      38  28  67 SW17      29.64S
MINOT AFB      CLOUDY    35  27  72 W10       29.63S
$$

NDZ018>021-031>035-040>046-180900-
SOUTHWEST NORTH DAKOTA

CITY           SKY/WX    TMP DP  RH WIND       PRES   REMARKS
BISMARCK       FAIR      19  14  81 SE5       29.74F WCI  12
DICKINSON      FAIR      33  22  63 W10       29.72F
GARRISON         N/A     27  21  78 SW6       29.68F
HETTINGER ARPT CLOUDY    27  18  69 NW7       29.81S WCI  19
$$

NDZ004>008-012>016-024-026-027-054-180900-
NORTHEAST NORTH DAKOTA

CITY           SKY/WX    TMP DP  RH WIND       PRES   REMARKS
GRAND FORKS    CLOUDY    23  16  74 S12       29.66F WCI  12
GRND FRKS AFB  CLOUDY    27  19  72 S13       29.66S WCI  16
DEVILS LAKE    FAIR      28  22  78 SW7       29.65R
$$

NDZ022-023-025-028>030-036>039-047>053-180900-
SOUTHEAST NORTH DAKOTA

CITY           SKY/WX    TMP DP  RH WIND       PRES   REMARKS
FARGO          CLOUDY    23  18  81 S12       29.76S WCI  12
JAMESTOWN      FAIR      28  20  71 SW12      29.70F WCI  18
$$





USA.gov is the U.S. government's official web portal to all federal, state and local government web resources and services.